KF0ZH Weather Reports


Display with metric or nautical units.
time (UTC)temp
F
wind
direction
speed
MPH
gust
MPH
rain 1hr
in
rain 24hr
in
rain mn
in
humidity
%
barometer
mb
20260508183658 69 305 0.0 20.0 0.00 0.00 0.00 33 1002.8
20260508182658 69 307 8.0 14.0 0.00 0.00 0.00 33 1002.9
20260508181658 69 291 11.0 15.0 0.00 0.00 0.00 33 1003.1
20260508180159 68 279 5.0 7.0 0.00 0.00 0.00 33 1003.4
20260508175700 68 291 6.0 15.0 0.00 0.00 0.00 32 1003.6
20260508174659 68 300 7.0 10.0 0.00 0.00 0.00 33 1003.7
20260508174201 69 358 1.0 10.0 0.00 0.00 0.00 33 1003.9
20260508173702 69 262 1.0 12.0 0.00 0.00 0.00 33 1004.1
20260508173158 68 295 5.0 9.0 0.00 0.00 0.00 33 1004.1
20260508172702 68 298 0.0 8.0 0.00 0.00 0.00 32 1004.4
20260508172159 69 272 0.0 5.0 0.00 0.00 0.00 35 1004.5
20260508171658 68 277 9.0 13.0 0.00 0.00 0.00 34 1004.5
20260508171158 68 284 0.0 6.0 0.00 0.00 0.00 35 1004.6
20260508165703 68 302 0.0 15.0 0.00 0.00 0.00 35 1004.9
20260508165201 67 291 0.0 7.0 0.00 0.00 0.00 36 1004.9
20260508164659 67 225 0.0 6.0 0.00 0.00 0.00 36 1005.0
20260508164159 67 253 0.0 0.0 0.00 0.00 0.00 36 1005.1
20260508163659 66 253 5.0 10.0 0.00 0.00 0.00 36 1005.1
20260508163159 66 274 1.0 10.0 0.00 0.00 0.00 38 1005.2
20260508162702 66 333 5.0 9.0 0.00 0.00 0.00 37 1005.3
20260508162159 66 254 2.0 7.0 0.00 0.00 0.00 38 1005.3
20260508161658 65 330 4.0 10.0 0.00 0.00 0.00 40 1005.4
20260508161158 63 217 0.0 0.0 0.00 0.00 0.00 43 1005.5
20260508160658 63 209 0.0 5.0 0.00 0.00 0.00 44 1005.6
20260508160158 62 337 0.0 7.0 0.00 0.00 0.00 45 1005.6
20260508155200 60 272 0.0 4.0 0.00 0.00 0.00 49 1005.8
20260508154659 59 187 0.0 0.0 0.00 0.00 0.00 49 1005.8
20260508154159 58 206 0.0 4.0 0.00 0.00 0.00 48 1006.0
20260508153658 58 262 0.0 3.0 0.00 0.00 0.00 49 1006.1
20260508153158 57 265 5.0 9.0 0.00 0.00 0.00 49 1006.1
20260508152658 57 227 5.0 10.0 0.00 0.00 0.00 49 1006.2
20260508151659 57 201 0.0 5.0 0.00 0.00 0.00 49 1006.3
20260508151158 57 241 3.0 8.0 0.00 0.00 0.00 49 1006.3
20260508150659 57 219 4.0 11.0 0.00 0.00 0.00 48 1006.3
20260508150159 56 268 0.0 6.0 0.00 0.00 0.00 49 1006.4
20260508145702 56 267 0.0 6.0 0.00 0.00 0.00 49 1006.4
20260508145200 56 208 0.0 9.0 0.00 0.00 0.00 50 1006.4
20260508144700 55 233 2.0 10.0 0.00 0.00 0.00 50 1006.4
20260508144159 55 299 0.0 6.0 0.00 0.00 0.00 51 1006.5
20260508143659 55 217 0.0 8.0 0.00 0.00 0.00 52 1006.4
20260508143159 55 212 0.0 9.0 0.00 0.00 0.00 52 1006.6
20260508142702 54 220 0.0 8.0 0.00 0.00 0.00 53 1006.6
20260508142200 54 243 4.0 7.0 0.00 0.00 0.00 53 1006.7
20260508141658 54 285 0.0 4.0 0.00 0.00 0.00 53 1006.6
20260508140658 54 277 0.0 0.0 0.00 0.00 0.00 55 1006.7
20260508140158 53 136 0.0 4.0 0.00 0.00 0.00 54 1006.7
20260508135659 53 254 0.0 0.0 0.00 0.00 0.00 55 1006.8
20260508135159 53 254 3.0 5.0 0.00 0.00 0.00 54 1006.8
20260508134658 53 267 0.0 0.0 0.00 0.00 0.00 55 1006.8
20260508134158 52 267 0.0 0.0 0.00 0.00 0.00 55 1006.8
20260508133658 52 271 3.0 9.0 0.00 0.00 0.00 54 1006.8
20260508133159 52 250 0.0 7.0 0.00 0.00 0.00 54 1006.9
20260508132159 53 306 0.0 8.0 0.00 0.00 0.00 53 1006.9
20260508131701 52 236 0.0 4.0 0.00 0.00 0.00 54 1007.0
20260508131158 52 240 0.0 0.0 0.00 0.00 0.00 54 1006.9
20260508130701 52 240 0.0 6.0 0.00 0.00 0.00 54 1006.9
20260508130159 52 248 0.0 3.0 0.00 0.00 0.00 55 1007.0
20260508125701 51 236 0.0 4.0 0.00 0.00 0.00 55 1007.1
20260508125200 50 236 0.0 0.0 0.00 0.00 0.00 57 1007.0
20260508124659 49 236 0.0 0.0 0.00 0.00 0.00 57 1007.0
20260508124159 49 281 4.0 5.0 0.00 0.00 0.00 57 1007.1
20260508124047 48 181 0.0 5.0 0.00 0.00 0.00 57 1007.0
20260508123700 48 181 0.0 5.0 0.00 0.00 0.00 57 1007.0
20260508123159 48 258 0.0 6.0 0.00 0.00 0.00 58 1007.0
20260508122702 47 181 0.0 6.0 0.00 0.00 0.00 58 1007.0
20260508122208 47 237 6.0 10.0 0.00 0.00 0.00 58 1007.0
20260508121159 46 175 0.0 8.0 0.00 0.00 0.00 59 1006.9
20260508120702 46 277 0.0 0.0 0.00 0.00 0.00 60 1006.9
20260508120202 45 232 0.0 6.0 0.00 0.00 0.00 61 1006.9
20260508115659 45 271 0.0 0.0 0.00 0.00 0.00 63 1006.8
20260508115159 44 271 0.0 0.0 0.00 0.00 0.00 64 1006.8
20260508114658 44 271 0.0 0.0 0.00 0.00 0.00 64 1006.8
20260508114159 43 271 0.0 0.0 0.00 0.00 0.00 64 1006.8
20260508113658 43 271 0.0 2.0 0.00 0.00 0.00 65 1006.8
20260508113158 43 271 0.0 0.0 0.00 0.00 0.00 66 1006.8
20260508112159 43 271 0.0 0.0 0.00 0.00 0.00 66 1006.8
20260508111158 43 275 0.0 0.0 0.00 0.00 0.00 66 1006.9
20260508110658 43 236 0.0 3.0 0.00 0.00 0.00 65 1006.9
20260508110159 43 317 0.0 0.0 0.00 0.00 0.00 65 1006.8
20260508105707 43 317 0.0 0.0 0.00 0.00 0.00 65 1006.8
20260508105202 43 317 0.0 0.0 0.00 0.00 0.00 66 1006.8
20260508104658 43 317 0.0 0.0 0.00 0.00 0.00 66 1006.8
20260508104158 43 317 0.0 0.0 0.00 0.00 0.00 66 1006.8
20260508103752 43 288 0.0 0.0 0.00 0.00 0.00 66 1006.8
20260508103658 43 288 0.0 0.0 0.00 0.00 0.00 66 1006.8
20260508103200 43 219 0.0 0.0 0.00 0.00 0.00 66 1006.8
20260508102205 42 219 3.0 3.0 0.00 0.00 0.00 67 1006.9
20260508101158 42 240 2.0 5.0 0.00 0.00 0.00 68 1006.9
20260508100658 42 203 0.0 0.0 0.00 0.00 0.00 69 1006.9
20260508100159 42 203 0.0 0.0 0.00 0.00 0.00 69 1006.9
20260508095305 41 203 0.0 0.0 0.00 0.00 0.00 71 1006.9
20260508095202 41 203 0.0 0.0 0.00 0.00 0.00 71 1006.9
20260508094158 41 203 0.0 0.0 0.00 0.00 0.00 73 1006.9
20260508093658 40 203 0.0 0.0 0.00 0.00 0.00 75 1007.0
20260508093158 40 203 0.0 0.0 0.00 0.00 0.00 76 1007.0
20260508092159 40 203 0.0 0.0 0.00 0.00 0.00 76 1007.0
20260508091659 41 203 0.0 0.0 0.00 0.00 0.00 76 1007.0
20260508091158 41 203 0.0 0.0 0.00 0.00 0.00 76 1007.0
20260508090659 41 203 0.0 0.0 0.00 0.00 0.00 75 1006.9
20260508090200 41 203 0.0 0.0 0.00 0.00 0.00 74 1006.9
20260508085659 41 203 0.0 0.0 0.00 0.00 0.00 74 1007.0
20260508085159 41 203 0.0 0.0 0.00 0.00 0.00 74 1007.0
20260508084658 41 203 0.0 0.0 0.00 0.00 0.00 75 1006.9
20260508084158 41 203 0.0 0.0 0.00 0.00 0.00 76 1007.0
20260508083658 41 203 0.0 0.0 0.00 0.00 0.00 78 1006.9
20260508083158 41 203 0.0 0.0 0.00 0.00 0.00 79 1006.9
20260508082209 40 203 0.0 0.0 0.00 0.00 0.00 80 1007.0
20260508081158 41 203 0.0 0.0 0.00 0.00 0.00 80 1007.0
20260508080659 40 203 0.0 0.0 0.00 0.00 0.00 80 1007.0
20260508080159 40 203 0.0 0.0 0.00 0.00 0.00 80 1007.0
20260508075159 40 203 0.0 0.0 0.00 0.00 0.00 80 1007.1
20260508074658 41 203 0.0 0.0 0.00 0.00 0.00 79 1007.1
20260508074158 41 203 0.0 0.0 0.00 0.00 0.00 78 1007.1
20260508073658 42 203 0.0 0.0 0.00 0.00 0.00 76 1007.1
20260508073159 41 203 0.0 0.0 0.00 0.00 0.00 76 1007.2
20260508072159 41 217 0.0 0.0 0.00 0.00 0.00 78 1007.2
20260508071200 41 217 0.0 0.0 0.00 0.00 0.00 78 1007.3
20260508070658 41 217 0.0 0.0 0.00 0.00 0.00 79 1007.3
20260508070158 41 217 0.0 0.0 0.00 0.00 0.00 79 1007.3
20260508065200 41 217 0.0 0.0 0.00 0.00 0.00 78 1007.3
20260508064658 41 217 0.0 0.0 0.00 0.00 0.00 77 1007.3
20260508064158 41 217 0.0 0.0 0.00 0.00 0.00 77 1007.4
20260508063658 41 217 0.0 0.0 0.00 0.00 0.00 76 1007.4
20260508063158 42 217 0.0 0.0 0.00 0.00 0.00 75 1007.4
20260508062340 42 217 0.0 0.0 0.00 0.00 0.00 74 1007.5
20260508062159 42 217 0.0 0.0 0.00 0.00 0.00 74 1007.5
20260508061159 42 217 0.0 0.0 0.00 0.00 0.00 73 1007.6
20260508060659 42 217 0.0 0.0 0.00 0.00 0.00 72 1007.6
20260508060158 42 217 0.0 0.0 0.00 0.00 0.00 72 1007.6
20260508055659 42 217 0.0 0.0 0.00 0.00 0.00 71 1007.6
20260508055159 42 217 0.0 0.0 0.00 0.00 0.00 71 1007.7
20260508054659 42 217 0.0 0.0 0.00 0.00 0.00 71 1007.6
20260508054159 43 217 0.0 0.0 0.00 0.00 0.00 71 1007.7
20260508053659 43 217 0.0 0.0 0.00 0.00 0.00 71 1007.7
20260508053159 43 217 0.0 0.0 0.00 0.00 0.00 71 1007.9
20260508051658 44 217 0.0 0.0 0.00 0.00 0.00 70 1007.7
20260508051159 44 217 0.0 0.0 0.00 0.00 0.00 70 1007.7
20260508050659 44 217 0.0 0.0 0.00 0.00 0.00 69 1007.7
20260508050252 44 217 0.0 0.0 0.00 0.00 0.00 69 1007.7
20260508050159 44 217 0.0 0.0 0.00 0.00 0.00 69 1007.7
20260508045205 44 217 0.0 0.0 0.00 0.00 0.00 68 1007.9
20260508044700 44 217 0.0 0.0 0.00 0.00 0.00 68 1007.9
20260508044159 44 217 0.0 0.0 0.00 0.00 0.00 67 1007.9
20260508043659 45 217 0.0 0.0 0.00 0.00 0.00 67 1008.0
20260508042705 45 217 0.0 0.0 0.00 0.00 0.00 68 1008.0
20260508042201 45 217 0.0 0.0 0.00 0.00 0.00 66 1008.0
20260508022158 52 217 0.0 0.0 0.00 0.00 0.00 53 1008.0
20260508021658 52 217 0.0 0.0 0.00 0.00 0.00 51 1007.9
20260508021158 53 217 0.0 0.0 0.00 0.00 0.00 51 1007.7
20260508020659 53 217 0.0 0.0 0.00 0.00 0.00 50 1007.6
20260508020158 53 217 0.0 0.0 0.00 0.00 0.00 50 1007.5
20260508013159 55 217 0.0 0.0 0.00 0.00 0.00 44 1007.2
20260508012704 55 217 0.0 0.0 0.00 0.00 0.00 43 1007.2
20260508012200 56 217 0.0 0.0 0.00 0.00 0.00 43 1007.2
20260508005203 57 217 0.0 0.0 0.00 0.00 0.00 40 1007.5
20260507235657 59 303 0.0 9.0 0.00 0.00 0.00 37 1007.6
20260507235158 59 292 0.0 0.0 0.00 0.00 0.00 38 1007.6
20260507234157 58 268 0.0 7.0 0.00 0.00 0.00 37 1007.7
20260507224158 59 244 7.0 10.0 0.00 0.00 0.00 37 1008.3
20260507222657 57 316 7.0 7.0 0.00 0.00 0.00 37 1008.4
20260507221657 58 307 7.0 9.0 0.00 0.00 0.00 36 1008.3
20260507220657 57 264 6.0 16.0 0.00 0.00 0.00 37 1008.3
20260507220157 57 278 6.0 6.0 0.00 0.00 0.00 37 1008.4
20260507215657 57 300 7.0 11.0 0.00 0.00 0.00 37 1008.4
20260507214658 58 282 5.0 10.0 0.00 0.00 0.00 39 1008.4
20260507214157 57 285 0.0 3.0 0.00 0.00 0.00 39 1008.5
20260507213657 57 312 6.0 8.0 0.00 0.00 0.00 38 1008.5
20260507213158 57 350 11.0 13.0 0.00 0.00 0.00 37 1008.6
20260507212657 57 358 0.0 0.0 0.00 0.00 0.00 38 1008.6
20260507211658 57 258 5.0 12.0 0.00 0.00 0.00 37 1008.7
20260507211200 57 4 3.0 11.0 0.00 0.00 0.00 38 1008.8
20260507210658 57 312 0.0 8.0 0.00 0.00 0.00 38 1008.8
20260507210200 57 281 0.0 11.0 0.00 0.00 0.00 38 1008.8
20260507204157 56 358 0.0 2.0 0.00 0.00 0.00 39 1009.1
20260507203657 56 338 0.0 3.0 0.00 0.00 0.00 38 1009.2
20260507203157 56 319 0.0 2.0 0.00 0.00 0.00 40 1009.3
20260507202657 56 327 5.0 6.0 0.00 0.00 0.00 40 1009.3
20260507202200 55 358 5.0 13.0 0.00 0.00 0.00 38 1009.2
20260507201700 55 317 0.0 9.0 0.00 0.00 0.00 38 1009.4
20260507201159 55 313 0.0 7.0 0.00 0.00 0.00 39 1009.5
20260507200700 55 260 0.0 10.0 0.00 0.00 0.00 39 1009.5
20260507200158 55 315 4.0 4.0 0.00 0.00 0.00 39 1009.5
20260507195704 55 303 3.0 9.0 0.00 0.00 0.00 39 1009.6
20260507194658 55 271 0.0 7.0 0.00 0.00 0.00 39 1009.6
20260507193657 55 288 0.0 6.0 0.00 0.00 0.00 39 1009.8
20260507193157 54 319 0.0 8.0 0.00 0.00 0.00 41 1009.8
20260507191658 54 337 7.0 10.0 0.00 0.00 0.00 43 1009.9
20260507191159 54 8 0.0 7.0 0.00 0.00 0.00 46 1009.9
20260507190658 53 344 7.0 7.0 0.00 0.00 0.00 42 1009.9
20260507190158 53 341 9.0 12.0 0.00 0.00 0.00 43 1010.0
20260507185158 53 351 9.0 11.0 0.00 0.00 0.00 40 1010.0
20260507184657 53 336 3.0 8.0 0.00 0.00 0.00 43 1010.1
20260507184157 53 171 0.0 3.0 0.00 0.00 0.00 44 1010.1